TimeEST,TemperatureF,Dew PointF,Humidity,Sea Level PressureIn,VisibilityMPH,Wind Direction,Wind SpeedMPH,Gust SpeedMPH,PrecipitationIn,Events,Conditions,WindDirDegrees,DateUTC
12:54 AM,36.0,32.0,86,30.59,10.0,NNE,6.9,-,N/A,,Clear,20,2012-11-18 05:54:00
1:54 AM,35.1,32.0,89,30.60,10.0,North,6.9,-,N/A,,Clear,10,2012-11-18 06:54:00
2:54 AM,36.0,32.0,86,30.60,10.0,North,5.8,-,N/A,,Clear,10,2012-11-18 07:54:00
3:54 AM,39.0,34.0,82,30.59,10.0,North,6.9,-,N/A,,Overcast,10,2012-11-18 08:54:00
4:54 AM,39.9,35.1,83,30.61,10.0,North,6.9,-,N/A,,Overcast,10,2012-11-18 09:54:00
5:54 AM,39.9,35.1,83,30.61,10.0,North,5.8,-,N/A,,Overcast,10,2012-11-18 10:54:00
6:54 AM,41.0,35.1,79,30.62,10.0,NNE,9.2,-,N/A,,Overcast,20,2012-11-18 11:54:00
7:54 AM,42.1,37.0,82,30.63,10.0,NNE,8.1,-,N/A,,Overcast,20,2012-11-18 12:54:00
8:54 AM,44.1,37.0,76,30.62,10.0,North,5.8,-,N/A,,Overcast,10,2012-11-18 13:54:00
9:54 AM,48.0,37.9,68,30.62,10.0,NNE,8.1,-,N/A,,Overcast,30,2012-11-18 14:54:00
10:54 AM,51.1,37.0,59,30.61,10.0,ENE,12.7,-,N/A,,Overcast,60,2012-11-18 15:54:00
11:54 AM,51.1,37.9,61,30.59,10.0,NE,13.8,21.9,N/A,,Overcast,50,2012-11-18 16:54:00
12:54 PM,51.1,37.9,61,30.58,10.0,ENE,16.1,-,N/A,,Overcast,60,2012-11-18 17:54:00
1:54 PM,51.1,37.9,61,30.56,10.0,ENE,13.8,20.7,N/A,,Overcast,60,2012-11-18 18:54:00
2:54 PM,50.0,37.9,63,30.56,10.0,NE,11.5,21.9,N/A,,Overcast,50,2012-11-18 19:54:00
3:54 PM,50.0,37.9,63,30.57,10.0,NE,10.4,-,N/A,,Overcast,40,2012-11-18 20:54:00
4:54 PM,48.9,37.9,66,30.56,10.0,NE,10.4,-,N/A,,Overcast,50,2012-11-18 21:54:00
5:54 PM,48.0,37.9,68,30.56,10.0,NE,9.2,-,N/A,,Overcast,40,2012-11-18 22:54:00
6:54 PM,48.0,37.9,68,30.56,10.0,NE,9.2,-,N/A,,Overcast,40,2012-11-18 23:54:00
7:54 PM,48.9,39.0,69,30.56,10.0,NE,9.2,-,N/A,,Overcast,50,2012-11-19 00:54:00
8:54 PM,48.9,39.9,71,30.55,10.0,NNE,10.4,-,N/A,,Overcast,30,2012-11-19 01:54:00
9:54 PM,48.0,39.9,74,30.53,10.0,NE,12.7,-,N/A,,Mostly Cloudy,40,2012-11-19 02:54:00
10:54 PM,48.0,39.9,74,30.50,10.0,NE,13.8,18.4,N/A,,Overcast,40,2012-11-19 03:54:00
11:54 PM,46.9,39.9,77,30.50,10.0,NNE,10.4,-,N/A,,Clear,30,2012-11-19 04:54:00